Regional Weather Roundup
Issued by NWS

Home | Current Version | Previous Version | Text Only | Print | Product List | Glossary On
Versions: 1 2 3 4 5 6 7 8 9 10 11 12 13 14 15 16 17 18 19 20 21 22 23 24 25 26 27 28 29 30 31 32 33 34 35 36 37 38 39 40 41 42 43 44 45 46 47 48 49 50
000
ASUS44 KJAN 281910
RWRMS

MISSISSIPPI HOURLY WEATHER ROUNDUP
NATIONAL WEATHER SERVICE JACKSON MS
100 PM CST SAT FEB 28 2015

NOTE: "FAIR: INDICATES FEW OR NO CLOUDS BELOW 12,000 FEET WITH NO
SIGNIFICANT WEATHER AND/OR OBSTRUCTIONS TO VISIBILITY.

MSZ001>002-007>008-010>013-018>021-025>028-034>036-282000-
NORTHWEST MISSISSIPPI

CITY           SKY/WX    TMP DP  RH WIND       PRES   REMARKS
CLARKSDALE     FAIR      39  27  60 N10       30.47F WCI  32
CLEVELAND      FAIR      44  31  60 NE7       30.44F
GREENWOOD        N/A    N/A N/A N/A MISG      30.41F
GREENVILLE     SUNNY     46  33  60 NE9       30.43F
OLIVE BRANCH   PTSUNNY   37  19  48 E6        30.46F WCI  33
OXFORD         FAIR      48  21  34 E3        30.45F
TUNICA         PTCLDY    37  23  56 NE7       30.48F WCI  32
$$

MSZ003>006-009-014>017-022>024-029>033-037>039-282000-
NORTHEAST MISSISSIPPI

CITY           SKY/WX    TMP DP  RH WIND       PRES   REMARKS
COLUMBUS AFB   SUNNY     55  31  40 CALM      30.42F
CORINTH        MOCLDY    48  19  32 SE5       30.45F
GOLDN TRIANGLE MOSUNNY   54  34  47 SE12      30.42F
STARKVILLE     CLOUDY    52  34  50 CALM      30.44S
TUPELO         SUNNY     48  25  40 MISG      30.45F
$$

MSZ040-058-282000-
CENTRAL MISSISSIPPI

CITY           SKY/WX    TMP DP  RH WIND       PRES   REMARKS
JACKSON INTL   PTSUNNY   61  31  32 N6        30.37F
JACKSON HAWKNS CLOUDY    58  30  34 VRB5      30.37F
MERIDIAN KEY   SUNNY     60  28  29 E9        30.38F
MERIDIAN NAS   SUNNY     60  30  32 E9        30.40F
VICKSBURG      CLOUDY    56  32  40 E7        30.37F
$$

MSZ059>079-282000-
SOUTH MISSISSIPPI

CITY           SKY/WX    TMP DP  RH WIND       PRES   REMARKS
BROOKHAVEN     FAIR      61  34  36 E10       30.37F
HATTIESBURG    SUNNY     64  33  31 E10       30.37F
MCCOMB         SUNNY     63  32  31 SE12      30.34F
NATCHEZ        CLOUDY    61  34  36 E7        30.35F
PINE BELT      SUNNY     63  34  34 E9        30.37F
$$

MSZ080>082-282000-
COASTAL MISSISSIPPI

CITY           SKY/WX    TMP DP  RH WIND       PRES   REMARKS
BILOXI         SUNNY     61  44  52 SE8       30.36F
PASCAGOULA     PTSUNNY   63  43  48 NE6       30.36F
GULFPORT       SUNNY     62  46  55 E13       30.36F
$$



USA.gov is the U.S. government's official web portal to all federal, state and local government web resources and services.